Location: Unspecified
(0.0000°N, 0.0000°E)
Time: 07:32:17
(UTC+00:00)

MetOp-A - Visible Passes

Search period start: 01 August 2021 00:00
Search period end: 11 August 2021 00:00
Orbit: 819 x 821 km, 98.5° (Epoch: 01 August)

Date Brightness Start Highest point End Pass type
(mag) Time Alt. Az. Time Alt. Az. Time Alt. Az.
01 Aug 5.7 18:54:45 14° E 18:55:52 14° ENE 18:58:39 10° NE visible
01 Aug 5.5 20:36:07 36° W 20:36:07 36° W 20:40:33 10° NW visible
02 Aug 4.4 20:15:09 64° W 20:15:09 64° W 20:20:18 10° NNW visible
03 Aug 3.9 19:54:12 72° E 19:54:21 73° ENE 19:59:40 10° N visible
04 Aug 4.5 19:33:15 40° E 19:33:41 41° ENE 19:38:40 10° N visible
04 Aug 6.9 21:14:36 12° W 21:14:36 12° W 21:15:40 10° WNW visible
05 Aug 5.2 19:12:17 23° E 19:13:01 24° ENE 19:17:12 10° NNE visible
05 Aug 6.2 20:53:39 22° W 20:53:39 22° W 20:56:56 10° NW visible
06 Aug 5.8 18:51:20 13° E 18:52:22 13° ENE 18:54:47 10° NE visible
06 Aug 5.3 20:32:42 38° W 20:32:42 38° W 20:37:08 10° NW visible
07 Aug 4.3 20:11:45 69° W 20:11:45 69° W 20:16:50 10° NNW visible
08 Aug 4.0 19:50:48 67° E 19:50:52 67° ENE 19:56:09 10° N visible
09 Aug 4.6 19:29:52 37° E 19:30:11 38° ENE 19:35:05 10° N visible
09 Aug 6.9 21:11:13 13° W 21:11:13 13° W 21:12:36 10° WNW visible
10 Aug 5.3 19:08:55 21° E 19:09:32 22° ENE 19:13:32 10° NNE visible
10 Aug 6.2 20:50:17 23° W 20:50:17 23° W 20:53:37 10° NW visible
